Location: Marcé
(47.5801°N, 0.3280°W)
Time: 10:41:31
(UTC+01:00)

Vanguard 3 - Pass Details

Date: 01 December 2021
Orbit: 508 x 3260 km, 33.3° (Epoch: 17 January)

Event Time Altitude Azimuth Distance (km) Brightness Sun altitude
Rises 06:46:57 0° 244° (WSW) 7,224 11.5 -16.5°
Reaches altitude 10° 06:52:16 10° 239° (WSW) 6,139 11.2 -15.6°
Maximum altitude 07:09:22 45° 176° (S) 3,265 10.3 -12.9°
Drops below altitude 10° 07:20:56 10° 109° (ESE) 4,250 12.4 -11.0°
Sets 07:23:52 0° 103° (ESE) 4,917 13.3 -10.6°
